This is the latest recevied weather packets stored in our database for station/object VK3VJP-13. If no packets are shown the sender has not sent any weather packets the latest 10 day(s).
| Time | Temp. | Humidity | Pressure | Rain* | Wind** | Luminosity | Snow |
|---|---|---|---|---|---|---|---|
| 1778055181 | 10° C | 93% | 1015.3 hPa | 0.25 mm | - | - | - |
| 1778054881 | 10° C | 93% | 1015.3 hPa | 0.25 mm | - | - | - |
| 1778054581 | 10° C | 93% | 1015.2 hPa | 0 mm | - | - | - |
| 1778054281 | 10.56° C | 93% | 1015.3 hPa | 0 mm | - | - | - |
| 1778053981 | 10.56° C | 93% | 1015.3 hPa | 0 mm | - | - | - |
| 1778053681 | 10.56° C | 93% | 1015.2 hPa | 2.54 mm | - | - | - |
| 1778053381 | 10.56° C | 93% | 1015.2 hPa | 3.56 mm | - | - | - |
| 1778053081 | 10.56° C | 93% | 1015.2 hPa | 4.32 mm | - | - | - |
| 1778052781 | 10.56° C | 93% | 1015.3 hPa | 4.83 mm | - | - | - |
| 1778052481 | 11.11° C | 92% | 1015.2 hPa | 4.83 mm | - | - | - |
| 1778052181 | 11.11° C | 93% | 1015.2 hPa | 5.08 mm | - | - | - |
| 1778051881 | 11.11° C | 93% | 1015.3 hPa | 5.08 mm | - | - | - |
| 1778051581 | 11.11° C | 93% | 1015.4 hPa | 5.08 mm | - | - | - |
| 1778051281 | 11.11° C | 92% | 1015.5 hPa | 5.08 mm | - | - | - |
| 1778050981 | 10.56° C | 92% | 1015.5 hPa | 5.08 mm | - | - | - |
| 1778050681 | 11.11° C | 91% | 1015.5 hPa | 5.08 mm | - | - | - |
| 1778050381 | 11.11° C | 90% | 1015.6 hPa | 5.08 mm | - | - | - |
| 1778050081 | 11.67° C | 90% | 1015.3 hPa | 2.54 mm | - | - | - |
| 1778049781 | 11.67° C | 89% | 1015.4 hPa | 1.52 mm | - | - | - |
| 1778049481 | 11.67° C | 89% | 1015.3 hPa | 0.76 mm | - | - | - |
| 1778049181 | 11.67° C | 88% | 1015.1 hPa | 0.25 mm | - | - | - |
| 1778048882 | 12.22° C | 87% | 1015 hPa | 0.25 mm | - | - | - |
| 1778048582 | 12.22° C | 86% | 1014.9 hPa | 0 mm | - | - | - |
| 1778048281 | 12.22° C | 85% | 1014.9 hPa | 0 mm | - | - | - |
| 1778047981 | 12.22° C | 85% | 1014.9 hPa | 0 mm | - | - | - |
* Rain latest hour (hover to see other rain measurements)
** Current wind speed in m/s (hover to see current wind gust speed)